Weather History for St. Johnsbury, VT

Change the Weather History Date:

Tuesday, November 20, 2012

  Actual Average Record
Temperature  
Mean Temperature 32 °F 34 °F  
Max Temperature 45 °F 42 °F 68 °F (1991)
Min Temperature 18 °F 27 °F 4 °F (1894)
Degree Days  
Heating Degree Days 33 31  
Month to date heating degree days 585 538  
Since 1 July heating degree days 1312 1325  
Cooling Degree Days 0 0  
Month to date cooling degree days 0  
Year to date cooling degree days 433  
Moisture  
Dew Point 22 °F    
Average Humidity 71    
Maximum Humidity 92    
Minimum Humidity 49    
Precipitation  
Precipitation 0.00 in 0.12 in 1.53 in (1948)
Month to date precipitation 0.85 2.30  
Year to date precipitation 30.54 35.32  
Sea Level Pressure  
Sea Level Pressure 30.23 in    
Wind  
Wind Speed - (North)    
Max Wind Speed -    
Max Gust Speed -    
T = Trace of Precipitation, MM = Missing Value Source: NWS Daily Summary

Daily Weather History Graph

Daily Weather History Graph

Search for Another Location

Airport:

Trip Planner

Search our weather history database for the weather conditions in past years. The results will help you decide how hot, cold, wet, or windy it might be!

Date:

Astronomy

Nov. 20, 2012 Rise Set
Actual Time 6:51 AM EST 4:15 PM EST
Civil Twilight 6:19 AM EST 4:47 PM EST
Nautical Twilight 5:43 AM EST 5:23 PM EST
Astronomical Twilight 5:09 AM EST 5:57 PM EST
Moon 12:16 PM EST (11/20) 11:54 PM EST (11/20)
Length of Visible Light 10h 28m
Length of Day
9h 24m
Waxing Crescent, 51% of the Moon is Illuminated
Nov 20
Waxing Crescent
Nov 28
Full
Dec 6
Last Quarter
Dec 13
New
Dec 20
First Quarter

Hourly Weather History & Observations

Time (EST) Temp. Dew Point Humidity Pressure Visibility Wind Dir Wind Speed Gust Speed Precip Events Conditions
12:54 AM 21.0 °F 19.0 °F 92% 30.30 in - North - - N/A   Unknown
1:54 AM 21.0 °F 18.0 °F 88% 30.29 in - North - - N/A   Unknown
2:54 AM 19.9 °F 18.0 °F 92% 30.29 in - North - - N/A   Unknown
3:54 AM 19.9 °F 17.1 °F 89% 30.27 in - North - - N/A   Unknown
4:54 AM 19.0 °F 17.1 °F 92% 30.28 in - North - - N/A   Unknown
5:54 AM 19.0 °F 16.0 °F 88% 30.28 in - North - - N/A   Unknown
6:54 AM 18.0 °F 15.1 °F 88% 30.27 in - North - - N/A   Unknown
7:54 AM 19.9 °F 17.1 °F 89% 30.28 in - North - - N/A   Unknown
8:54 AM 23.0 °F 19.0 °F 85% 30.27 in - North - - N/A   Unknown
9:54 AM 27.0 °F 21.0 °F 78% 30.26 in - North - - N/A   Unknown
10:54 AM 33.1 °F 24.1 °F 70% 30.23 in - North - - N/A   Unknown
11:54 AM 37.0 °F 24.1 °F 59% 30.20 in - North - - N/A   Unknown
12:54 PM 39.0 °F 26.1 °F 60% 30.18 in - North - - N/A   Unknown
1:54 PM 43.0 °F 25.0 °F 49% 30.15 in - North - - N/A   Unknown
2:54 PM 45.0 °F 26.1 °F 48% 30.14 in - North - - N/A   Unknown
3:54 PM 42.1 °F 26.1 °F 53% 30.16 in - North - - N/A   Unknown
4:54 PM 35.1 °F 27.0 °F 72% 30.18 in - North - - N/A   Unknown
5:54 PM 33.1 °F 27.0 °F 78% 30.19 in - North - - N/A   Unknown
6:54 PM 32.0 °F 26.1 °F 79% 30.21 in - North - - N/A   Unknown
7:54 PM 30.9 °F 26.1 °F 82% 30.21 in - North - - N/A   Unknown
8:54 PM 30.9 °F 26.1 °F 82% 30.21 in - North - - N/A   Unknown
9:54 PM 30.9 °F 26.1 °F 82% 30.21 in - North - - N/A   Unknown
10:54 PM 30.9 °F 26.1 °F 82% 30.20 in - North - - N/A   Unknown
11:54 PM 30.0 °F 26.1 °F 85% 30.20 in - North - - N/A   Unknown